EW4694 Weather Reports


Display with metric or nautical units.
time (UTC)temp
F
wind
direction
speed
MPH
gust
MPH
rain 1hr
in
rain 24hr
in
rain mn
in
humidity
%
barometer
mb
20260510060057 47 131 0.0 0.0 0.00 0.00 0.00 1 1012.1
20260510054549 47 131 0.0 0.0 0.00 0.00 0.00 1 1012.2
20260510053032 47 131 0.0 0.0 0.00 0.00 0.00 1 1012.4
20260510051524 47 131 0.0 0.0 0.00 0.00 0.00 1 1012.4
20260510050002 48 131 0.0 0.0 0.00 0.00 0.00 1 1012.4
20260510044557 47 131 0.0 0.0 0.00 0.00 0.00 1 1012.3
20260510043047 48 131 0.0 0.0 0.00 0.00 0.00 1 1012.2
20260510041533 48 131 0.0 0.0 0.00 0.00 0.00 1 1012.2
20260510040010 48 131 0.0 0.0 0.00 0.00 0.00 1 1012.0
20260510034506 48 130 0.0 0.0 0.00 0.00 0.00 1 1011.8
20260510033053 49 105 0.0 0.0 0.00 0.00 0.00 1 1011.9
20260510031618 49 104 0.0 0.0 0.00 0.00 0.00 1 1011.6
20260510030041 49 104 0.0 0.0 0.00 0.00 0.00 1 1011.6
20260510024538 50 104 0.0 0.0 0.00 0.00 0.00 1 1011.6
20260510023043 51 104 0.0 0.0 0.00 0.00 0.00 3 1011.3
20260510021527 51 104 0.0 0.0 0.00 0.00 0.00 8 1011.2
20260510020023 52 104 0.0 0.0 0.00 0.00 0.00 14 1011.0
20260510014520 53 103 0.0 0.0 0.00 0.00 0.00 27 1010.6
20260510013058 54 103 0.0 0.0 0.00 0.00 0.00 32 1010.4
20260510011608 56 103 0.0 0.0 0.00 0.00 0.00 43 1010.3
20260510010034 58 103 0.0 0.0 0.00 0.00 0.00 54 1010.0
20260510004630 60 103 0.0 0.0 0.00 0.00 0.00 61 1009.9
20260510003006 64 74 0.0 0.0 0.00 0.00 0.00 65 1009.7
20260510001506 65 213 0.0 0.0 0.00 0.00 0.00 63 1009.3
20260510000055 66 213 0.0 0.0 0.00 0.00 0.00 62 1009.2
20260509234601 67 280 0.0 0.0 0.00 0.00 0.00 61 1009.1
20260509233057 68 277 0.0 0.0 0.00 0.00 0.00 58 1008.9
20260509231559 68 260 0.0 0.0 0.00 0.00 0.00 57 1008.9
20260509230045 68 277 0.0 4.0 0.00 0.00 0.00 56 1008.9
20260509224541 69 292 0.0 0.0 0.00 0.00 0.00 58 1009.2
20260509223038 69 259 0.0 0.0 0.00 0.00 0.00 57 1009.3
20260509221537 68 268 0.0 1.0 0.00 0.00 0.00 57 1009.4
20260509220011 69 277 0.0 0.0 0.00 0.00 0.00 55 1009.4
20260509214506 68 281 0.0 0.0 0.00 0.00 0.00 58 1009.4
20260509213059 67 267 0.0 0.0 0.00 0.00 0.00 60 1009.5
20260509211606 68 265 0.0 0.0 0.00 0.00 0.00 59 1009.5
20260509210019 67 282 0.0 0.0 0.00 0.00 0.00 59 1009.6
20260509204515 68 304 0.0 0.0 0.00 0.00 0.00 56 1009.4
20260509203113 67 275 0.0 2.0 0.00 0.00 0.00 58 1009.3
20260509201549 67 271 0.0 1.0 0.00 0.00 0.00 57 1009.5
20260509200045 67 194 0.0 1.0 0.00 0.00 0.00 58 1009.7
20260509194522 67 265 0.0 0.0 0.00 0.00 0.00 58 1009.8
20260509193019 67 275 0.0 4.0 0.00 0.00 0.00 57 1009.9
20260509191559 67 236 0.0 3.0 0.00 0.00 0.00 59 1009.9
20260509190100 66 247 0.0 4.0 0.00 0.00 0.00 58 1009.9
20260509184530 66 289 0.0 1.0 0.00 0.00 0.00 56 1009.8
20260509183027 66 302 0.0 0.0 0.00 0.00 0.00 57 1009.9
20260509181505 67 275 0.0 0.0 0.00 0.00 0.00 59 1009.7
20260509180001 65 284 0.0 0.0 0.00 0.00 0.00 59 1009.7
20260509174541 65 281 0.0 0.0 0.00 0.00 0.00 61 1010.0
20260509173035 64 284 0.0 0.0 0.00 0.00 0.00 61 1010.1
20260509171512 63 275 0.0 0.0 0.00 0.00 0.00 60 1010.2
20260509170008 63 274 0.0 0.0 0.00 0.00 0.00 61 1010.4
20260509164547 62 286 0.0 1.0 0.00 0.00 0.00 63 1010.3
20260509163054 61 126 0.0 0.0 0.00 0.00 0.00 66 1010.4
20260509161521 61 79 0.0 0.0 0.00 0.00 0.00 65 1010.2
20260509160016 60 136 0.0 0.0 0.00 0.00 0.00 66 1010.4
20260509154554 60 142 0.0 0.0 0.00 0.00 0.00 66 1010.4
20260509153052 60 121 0.0 0.0 0.00 0.00 0.00 65 1010.4
20260509151528 60 138 0.0 0.0 0.00 0.00 0.00 63 1010.7
20260509150024 59 180 0.0 0.0 0.00 0.00 0.00 64 1011.0
20260509144503 59 209 0.0 0.0 0.00 0.00 0.00 62 1010.9
20260509143109 59 180 0.0 0.0 0.00 0.00 0.00 63 1010.9
20260509141537 58 139 0.0 0.0 0.00 0.00 0.00 59 1010.9
20260509140032 57 137 0.0 0.0 0.00 0.00 0.00 56 1010.9
20260509134511 55 181 0.0 0.0 0.00 0.00 0.00 38 1011.1
20260509133007 54 181 0.0 0.0 0.00 0.00 0.00 22 1011.2
20260509131545 54 181 0.0 0.0 0.00 0.00 0.00 10 1011.5
20260509130044 53 150 0.0 0.0 0.00 0.00 0.00 1 1011.5
20260509124522 52 150 0.0 0.0 0.00 0.00 0.00 1 1011.6
20260509123016 51 150 0.0 0.0 0.00 0.00 0.00 1 1011.5
20260509121512 51 151 0.0 0.0 0.00 0.00 0.00 1 1011.6
20260509120014 50 219 0.0 0.0 0.00 0.00 0.00 1 1011.5
20260509114503 50 198 0.0 0.0 0.00 0.00 0.00 1 1011.5
20260509113100 50 207 0.0 0.0 0.00 0.00 0.00 1 1011.4
20260509111557 0 0.0 0.0 0.00 0.00 0.00 1011.4
20260509110057 0 0.0 0.0 0.00 0.00 0.00 1011.3
20260509104548 0 0.0 0.0 0.00 0.00 0.00 1011.1
20260509103043 0 0.0 0.0 0.00 0.00 0.00 1011.1
20260509101542 0 0.0 0.0 0.00 0.00 0.00 1011.1
20260509100039 0 0.0 0.0 0.00 0.00 0.00 1011.2
20260509094536 0 0.0 0.0 0.00 0.00 0.00 1011.3
20260509093029 50 293 0.0 0.0 0.00 0.00 0.00 1 1011.5
20260509091549 50 293 0.0 0.0 0.00 0.00 0.00 1 1011.7
20260509090041 50 293 0.0 0.0 0.00 0.00 0.00 1 1011.7
20260509084540 50 293 0.0 0.0 0.00 0.00 0.00 1 1011.7
20260509083033 50 293 0.0 0.0 0.00 0.00 0.00 1 1011.5
20260509081518 50 293 0.0 0.0 0.00 0.00 0.00 1 1011.8
20260509080022 50 293 0.0 0.0 0.00 0.00 0.00 1 1011.7
20260509074508 50 293 0.0 0.0 0.00 0.00 0.00 5 1011.4
20260509073006 50 293 0.0 0.0 0.00 0.00 0.00 8 1011.2
20260509071600 50 293 0.0 0.0 0.00 0.00 0.00 11 1011.1
20260509070100 51 293 0.0 0.0 0.00 0.00 0.00 16 1011.1
20260509064557 51 293 0.0 0.0 0.00 0.00 0.00 18 1011.1
20260509063053 51 293 0.0 0.0 0.00 0.00 0.00 26 1011.3
20260509061539 51 293 0.0 0.0 0.00 0.00 0.00 30 1011.2